QPF
0.00 0.00 0.00 0.00 0.00 0.00 0.00 0.00 0.00 0.00 0.01 0.01 0.00 0.00 0.00 0.00 0.00 0.00 0.00 0.00 0.00 0.00 0.00 0.00 0.00 0.00 0.00 0.00 0.00 0.00 0.00 0.01 0.02 0.00 0.00 0.00 0.00 0.02 0.01 0.00 0.00 0.00 0.00
0.00 0.00 0.00 0.00 0.00 0.00 0.00 0.00 0.00 0.00 0.00 0.01 0.00 0.00 0.00 0.00 0.00 0.00 0.00 0.00 0.00 0.00 0.00 0.00 0.00 0.00 0.00 0.00 0.00 0.00 0.00 0.01 0.04 0.03 0.01 0.00 0.00 0.00 0.00 0.00 0.00 0.00 0.00
0.00 0.00 0.00 0.00 0.00 0.00 0.00 0.00 0.00 0.00 0.00 0.01 0.01 0.01 0.00 0.00 0.00 0.00 0.00 0.00 0.00 0.00 0.00 0.00 0.00 0.00 0.00 0.00 0.00 0.01 0.03 0.04 0.03 0.01 0.00 0.00 0.00 0.00 0.00 0.00 0.00 0.00 0.00
0.00 0.00 0.00 0.00 0.00 0.00 0.00 0.00 0.00 0.00 0.00 0.01 0.01 0.00 0.00 0.00 0.00 0.00 0.00 0.00 0.00 0.00 0.00 0.00 0.00 0.00 0.00 0.01 0.02 0.03 0.06 0.02 0.00 0.00 0.00 0.00 0.00 0.00 0.00 0.00 0.00 0.00 0.01
0.00 0.00 0.00 0.00 0.01 0.00 0.00 0.00 0.00 0.00 0.00 0.00 0.00 0.00 0.00 0.00 0.00 0.00 0.00 0.00 0.00 0.00 0.00 0.00 0.00 0.00 0.00 0.00 0.00 0.00 0.01 0.00 0.00 0.00 0.00 0.00 0.00 0.00 0.00 0.00 0.02 0.02 0.02
0.00 0.00 0.00 0.00 0.01 0.00 0.00 0.00 0.00 0.00 0.00 0.00 0.00 0.00 0.00 0.00 0.00 0.00 0.00 0.00 0.00 0.00 0.00 0.00 0.01 0.01 0.00 0.00 0.00 0.00 0.00 0.00 0.00 0.00 0.00 0.00 0.00 0.00 0.01 0.02 0.03 0.04 0.03
0.00 0.00 0.00 0.00 0.00 0.00 0.01 0.02 0.01 0.00 0.00 0.00 0.00 0.00 0.00 0.00 0.00 0.00 0.00 0.00 0.00 0.00 0.01 0.02 0.02 0.00 0.03 0.05 0.00 0.00 0.00 0.00 0.00 0.00 0.00 0.00 0.00 0.00 0.02 0.02 0.03 0.04 0.04
0.00 0.00 0.00 0.00 0.00 0.00 0.01 0.00 0.00 0.00 0.00 0.00 0.00 0.00 0.00 0.00 0.00 0.00 0.00 0.00 0.00 0.00 0.00 0.02 0.03 0.03 0.03 0.01 0.00 0.00 0.00 0.00 0.00 0.00 0.00 0.00 0.00 0.00 0.00 0.00 0.01 0.02 0.03
0.00 0.00 0.00 0.00 0.00 0.00 0.00 0.00 0.00 0.00 0.00 0.00 0.00 0.00 0.00 0.00 0.00 0.00 0.00 0.00 0.00 0.00 0.01 0.04 0.04 0.05 0.04 0.00 0.00 0.00 0.00 0.00 0.00 0.00 0.00 0.00 0.00 0.00 0.00 0.00 0.02 0.03 0.01
0.00 0.00 0.00 0.00 0.00 0.00 0.00 0.00 0.01 0.00 0.00 0.00 0.00 0.00 0.00 0.00 0.00 0.00 0.00 0.00 0.00 0.00 0.02 0.03 0.01 0.02 0.01 0.00 0.00 0.00 0.00 0.00 0.00 0.00 0.00 0.00 0.00 0.00 0.00 0.01 0.01 0.01 0.01
0.00 0.00 0.00 0.00 0.00 0.00 0.00 0.00 0.01 0.00 0.00 0.00 0.00 0.00 0.00 0.00 0.00 0.00 0.00 0.00 0.00 0.01 0.02 0.03 0.07 0.02 0.00 0.00 0.00 0.00 0.00 0.00 0.00 0.00 0.00 0.00 0.00 0.01 0.00 0.00 0.00 0.01 0.01
0.00 0.00 0.00 0.00 0.00 0.00 0.00 0.00 0.01 0.01 0.00 0.00 0.00 0.00 0.00 0.00 0.00 0.00 0.00 0.00 0.00 0.00 0.01 0.04 0.01 0.00 0.00 0.00 0.00 0.00 0.00 0.00 0.00 0.00 0.00 0.00 0.00 0.00 0.00 0.00 0.00 0.00 0.01
0.00 0.00 0.00 0.00 0.00 0.00 0.00 0.00 0.01 0.01 0.00 0.00 0.00 0.00 0.00 0.00 0.00 0.00 0.00 0.00 0.00 0.00 0.00 0.02 0.00 0.00 0.00 0.00 0.00 0.00 0.00 0.00 0.00 0.00 0.00 0.00 0.00 0.00 0.00 0.00 0.00 0.00 0.01
0.00 0.00 0.00 0.00 0.00 0.00 0.00 0.00 0.00 0.01 0.00 0.00 0.00 0.00 0.00 0.00 0.00 0.00 0.00 0.00 0.00 0.00 0.00 0.00 0.00 0.00 0.00 0.00 0.00 0.00 0.00 0.00 0.00 0.00 0.00 0.00 0.00 0.00 0.00 0.00 0.00 0.00 0.00
0.00 0.00 0.00 0.00 0.00 0.00 0.00 0.00 0.00 0.00 0.00 0.00 0.00 0.00 0.00 0.00 0.00 0.00 0.00 0.00 0.00 0.00 0.00 0.00 0.00 0.00 0.00 0.00 0.00 0.00 0.00 0.00 0.00 0.00 0.00 0.00 0.00 0.00 0.00 0.00 0.00 0.00 0.00
0.00 0.00 0.00 0.00 0.00 0.00 0.00 0.00 0.00 0.00 0.00 0.00 0.00 0.00 0.00 0.00 0.00 0.00 0.00 0.00 0.00 0.00 0.00 0.00 0.00 0.00 0.00 0.00 0.00 0.00 0.00 0.00 0.00 0.00 0.00 0.00 0.00 0.00 0.00 0.00 0.00 0.00 0.00
0.00 0.00 0.00 0.00 0.00 0.00 0.00 0.00 0.01 0.00 0.00 0.00 0.00 0.00 0.00 0.00 0.00 0.00 0.00 0.00 0.00 0.00 0.00 0.00 0.00 0.00 0.00 0.00 0.00 0.00 0.00 0.00 0.00 0.00 0.00 0.00 0.00 0.00 0.00 0.00 0.00 0.00 0.00
0.00 0.00 0.00 0.00 0.00 0.00 0.00 0.01 0.01 0.00 0.00 0.00 0.00 0.00 0.00 0.00 0.00 0.00 0.00 0.00 0.00 0.00 0.00 0.00 0.00 0.00 0.00 0.00 0.00 0.00 0.00 0.00 0.00 0.00 0.00 0.00 0.00 0.00 0.00 0.00 0.00 0.00 0.00
0.00 0.00 0.00 0.00 0.00 0.00 0.00 0.01 0.01 0.00 0.00 0.00 0.00 0.00 0.00 0.00 0.00 0.00 0.00 0.00 0.00 0.00 0.00 0.00 0.00 0.00 0.00 0.00 0.00 0.00 0.00 0.00 0.00 0.00 0.00 0.00 0.00 0.00 0.00 0.00 0.00 0.00 0.00
0.00 0.00 0.00 0.00 0.00 0.00 0.01 0.02 0.01 0.00 0.00 0.00 0.00 0.00 0.00 0.00 0.00 0.00 0.00 0.00 0.00 0.00 0.00 0.00 0.00 0.00 0.00 0.00 0.00 0.00 0.00 0.00 0.00 0.00 0.00 0.00 0.00 0.00 0.00 0.00 0.00 0.00 0.00
0.00 0.00 0.00 0.00 0.00 0.02 0.05 0.05 0.00 0.00 0.00 0.00 0.00 0.00 0.00 0.00 0.00 0.00 0.00 0.00 0.00 0.00 0.00 0.00 0.00 0.00 0.00 0.00 0.00 0.00 0.00 0.00 0.00 0.00 0.00 0.00 0.00 0.00 0.00 0.00 0.00 0.00 0.00
0.00 0.00 0.00 0.00 0.02 0.08 0.05 0.01 0.00 0.00 0.00 0.00 0.00 0.00 0.00 0.00 0.00 0.00 0.00 0.00 0.00 0.00 0.00 0.00 0.00 0.00 0.00 0.00 0.00 0.00 0.00 0.00 0.00 0.00 0.00 0.00 0.00 0.00 0.00 0.00 0.00 0.01 0.01
0.00 0.00 0.00 0.01 0.09 0.10 0.02 0.00 0.00 0.00 0.00 0.00 0.00 0.00 0.00 0.00 0.00 0.00 0.00 0.00 0.00 0.00 0.00 0.00 0.00 0.00 0.00 0.00 0.00 0.00 0.00 0.00 0.00 0.00 0.00 0.00 0.00 0.00 0.00 0.00 0.00 0.00 0.01
0.00 0.00 0.00 0.06 0.05 0.02 0.00 0.00 0.00 0.00 0.00 0.00 0.00 0.00 0.00 0.00 0.00 0.00 0.00 0.00 0.00 0.00 0.00 0.00 0.00 0.00 0.00 0.00 0.00 0.00 0.00 0.00 0.00 0.00 0.00 0.00 0.00 0.00 0.00 0.00 0.00 0.00 0.00
0.00 0.00 0.01 0.07 0.07 0.03 0.00 0.00 0.00 0.00 0.00 0.00 0.00 0.00 0.00 0.00 0.00 0.00 0.00 0.00 0.00 0.00 0.00 0.00 0.00 0.00 0.00 0.00 0.00 0.00 0.00 0.00 0.00 0.00 0.00 0.00 0.00 0.00 0.00 0.00 0.00 0.00 0.00
0.00 0.00 0.07 0.06 0.01 0.00 0.00 0.00 0.00 0.00 0.00 0.00 0.00 0.00 0.00 0.00 0.00 0.00 0.00 0.00 0.00 0.00 0.00 0.00 0.00 0.00 0.00 0.00 0.00 0.00 0.00 0.00 0.00 0.00 0.00 0.00 0.00 0.00 0.00 0.00 0.00 0.01 0.00
MSLP
1013.20 1013.37 1013.90 1014.55 1015.30 1015.91 1016.39 1016.72 1016.89 1017.12 1017.11 1017.28 1017.65 1017.91 1018.10 1018.39 1018.59 1018.85 1018.73 1018.83 1019.47 1019.56 1019.60 1019.80 1019.51 1019.58 1019.22 1018.74 1018.38 1018.16 1018.11 1018.64 1018.70 1017.92 1018.23 1017.79 1017.39 1017.18 1017.57 1017.47 1017.35 1017.36 1017.46
1013.02 1013.47 1014.04 1014.54 1015.11 1015.57 1016.00 1016.37 1016.71 1017.02 1017.15 1017.28 1017.37 1017.56 1017.90 1017.88 1018.18 1018.63 1018.92 1018.59 1019.29 1019.35 1019.05 1019.15 1019.41 1019.13 1018.96 1018.98 1018.80 1018.55 1018.60 1018.47 1018.86 1018.62 1017.92 1017.20 1016.76 1016.87 1016.85 1017.09 1017.00 1017.25 1016.92
1012.55 1013.39 1013.67 1014.10 1014.48 1015.06 1015.50 1015.87 1016.25 1016.54 1016.72 1016.84 1017.10 1017.11 1016.85 1017.40 1017.82 1018.25 1018.62 1018.91 1018.98 1018.82 1018.97 1019.06 1019.05 1019.00 1019.04 1018.80 1018.68 1018.56 1018.72 1018.91 1018.69 1018.05 1017.18 1016.69 1016.77 1016.44 1016.53 1016.51 1016.90 1016.93 1016.86
1011.62 1012.80 1013.49 1013.89 1014.19 1014.49 1014.98 1015.32 1015.79 1016.15 1016.27 1016.50 1016.64 1016.55 1016.75 1017.12 1017.41 1017.79 1018.29 1018.50 1018.87 1019.38 1019.40 1019.24 1019.05 1018.93 1018.83 1018.71 1018.61 1018.80 1018.94 1018.93 1018.06 1017.46 1017.13 1016.65 1016.39 1016.32 1016.49 1016.60 1016.78 1017.04 1016.82
1011.69 1011.97 1012.96 1013.40 1013.63 1013.98 1014.44 1014.98 1015.48 1015.85 1016.03 1016.15 1016.17 1016.32 1016.57 1016.93 1017.10 1017.63 1018.01 1018.48 1019.16 1019.40 1019.42 1019.05 1018.83 1018.84 1018.68 1018.65 1018.82 1018.80 1018.69 1018.46 1018.10 1017.77 1017.13 1016.87 1016.71 1017.05 1017.31 1017.27 1017.19 1017.20 1016.86
1012.23 1012.41 1012.80 1013.15 1013.22 1013.70 1014.09 1014.63 1014.94 1015.17 1015.50 1015.70 1015.74 1015.96 1016.26 1016.43 1016.67 1017.30 1017.83 1018.57 1018.90 1019.07 1019.31 1018.91 1018.77 1018.62 1018.31 1018.39 1018.85 1019.27 1019.43 1019.17 1018.96 1018.49 1017.90 1017.63 1017.57 1017.66 1017.62 1017.78 1017.54 1017.33 1016.87
1011.76 1011.92 1012.63 1012.97 1013.07 1013.34 1013.66 1014.14 1014.50 1015.02 1015.10 1015.11 1015.49 1015.73 1015.86 1016.21 1016.54 1017.18 1017.80 1018.32 1018.65 1018.96 1019.15 1018.96 1018.84 1017.98 1018.05 1018.22 1018.71 1018.63 1018.83 1018.87 1018.78 1018.58 1018.53 1018.21 1018.06 1018.12 1017.97 1017.73 1017.41 1017.28 1017.00
1011.94 1011.97 1012.36 1012.71 1012.88 1013.05 1013.42 1013.84 1014.31 1014.27 1014.44 1015.02 1015.22 1015.18 1015.29 1015.64 1016.42 1016.91 1017.76 1018.09 1018.16 1018.59 1018.94 1018.68 1018.46 1018.22 1017.89 1018.02 1018.37 1018.30 1018.09 1017.81 1018.22 1018.27 1018.03 1017.96 1017.98 1018.28 1018.29 1018.00 1017.60 1017.07 1016.45
1012.44 1012.32 1012.35 1012.33 1012.56 1012.95 1013.22 1013.53 1013.75 1013.94 1014.34 1014.59 1014.53 1014.71 1014.97 1015.49 1016.16 1016.64 1017.33 1017.76 1017.89 1018.15 1017.97 1017.91 1017.92 1017.64 1017.54 1017.67 1017.79 1017.67 1017.42 1016.95 1017.23 1017.63 1017.84 1017.84 1018.26 1018.47 1018.51 1017.95 1017.33 1017.21 1016.49
1012.82 1012.60 1012.49 1012.40 1012.32 1012.44 1012.86 1013.03 1013.34 1013.49 1013.68 1014.08 1014.39 1014.64 1014.84 1015.47 1016.10 1016.59 1017.11 1017.34 1017.54 1017.55 1017.33 1017.37 1017.35 1017.23 1017.38 1017.60 1017.71 1017.35 1017.04 1016.61 1016.62 1017.61 1017.76 1017.58 1017.88 1017.82 1018.06 1018.20 1017.34 1017.21 1016.70
1012.98 1012.58 1012.51 1012.62 1012.60 1012.24 1012.27 1012.68 1012.88 1013.20 1013.50 1013.77 1014.17 1014.44 1014.84 1015.18 1015.90 1016.38 1016.76 1017.00 1016.93 1016.92 1016.90 1016.64 1016.92 1017.27 1017.40 1017.40 1017.55 1017.26 1017.11 1017.38 1016.68 1016.73 1016.42 1016.40 1016.31 1016.93 1016.83 1017.15 1016.89 1016.63 1016.75
1012.94 1012.64 1012.46 1012.45 1012.44 1012.19 1012.45 1012.88 1012.86 1012.79 1013.23 1013.57 1013.98 1014.26 1014.64 1015.07 1015.50 1016.17 1016.51 1016.77 1016.69 1016.87 1016.90 1017.00 1016.77 1016.63 1016.90 1017.33 1017.46 1017.33 1017.28 1017.27 1016.72 1016.21 1015.71 1016.02 1015.69 1015.82 1015.69 1015.81 1016.06 1016.16 1016.29
1012.85 1012.63 1012.44 1012.40 1012.16 1012.05 1011.81 1011.68 1012.11 1012.45 1013.02 1013.31 1013.69 1014.10 1014.38 1014.72 1015.25 1015.84 1016.23 1016.57 1016.84 1016.98 1016.81 1016.70 1016.65 1016.60 1016.89 1017.04 1016.85 1016.64 1016.57 1016.35 1016.00 1015.59 1015.69 1015.49 1015.38 1015.20 1015.32 1015.48 1015.56 1015.54 1015.53
1012.62 1012.38 1012.25 1012.11 1011.64 1011.44 1011.31 1011.02 1011.92 1012.33 1012.87 1013.19 1013.34 1013.56 1014.17 1014.47 1014.96 1015.61 1016.13 1016.56 1016.75 1016.58 1016.44 1016.44 1016.35 1016.21 1016.10 1015.70 1015.59 1015.93 1016.03 1015.62 1015.05 1014.98 1014.85 1014.92 1015.11 1015.31 1015.05 1014.91 1014.94 1014.73 1014.50
1012.30 1012.08 1011.90 1011.50 1011.00 1010.94 1010.57 1010.88 1011.48 1012.29 1012.95 1012.97 1013.14 1013.40 1013.74 1014.23 1014.66 1015.24 1015.64 1015.48 1015.86 1016.09 1015.99 1015.38 1015.12 1014.55 1014.32 1013.87 1014.02 1014.01 1014.46 1014.46 1014.41 1014.60 1014.68 1014.89 1014.98 1014.70 1014.54 1014.45 1014.42 1014.37 1013.78
1011.74 1011.61 1011.23 1011.05 1011.00 1010.37 1010.15 1010.88 1012.03 1012.31 1012.78 1012.90 1013.03 1013.23 1013.75 1014.17 1014.70 1015.15 1015.45 1015.46 1015.69 1015.84 1015.61 1014.72 1013.76 1013.25 1012.96 1012.72 1012.67 1012.86 1012.95 1013.23 1013.44 1013.96 1014.26 1014.33 1014.51 1014.49 1014.45 1014.32 1013.95 1013.79 1013.58
1011.32 1011.17 1010.96 1010.72 1010.22 1009.99 1009.79 1009.70 1010.79 1012.37 1012.66 1012.87 1013.06 1013.32 1013.68 1013.93 1014.38 1014.92 1015.27 1015.52 1015.75 1015.63 1015.20 1014.00 1013.12 1012.66 1012.48 1012.62 1012.85 1012.94 1013.13 1013.35 1013.94 1014.03 1014.26 1014.46 1014.48 1014.27 1014.09 1013.90 1013.80 1013.67 1013.45
1010.80 1010.64 1010.47 1010.07 1009.57 1009.12 1008.77 1008.73 1009.86 1011.23 1012.46 1013.33 1013.43 1013.62 1013.82 1014.04 1014.45 1014.95 1015.31 1015.33 1015.52 1015.27 1014.43 1013.54 1012.66 1012.49 1012.61 1012.79 1012.99 1013.20 1013.36 1013.62 1014.02 1014.42 1014.46 1014.43 1014.26 1014.15 1014.13 1014.08 1013.98 1013.94 1013.77
1010.31 1009.96 1009.64 1009.38 1008.99 1008.66 1008.43 1008.51 1008.83 1010.81 1012.16 1012.96 1013.62 1013.95 1014.33 1014.41 1014.90 1015.06 1015.09 1014.61 1014.23 1013.63 1013.04 1012.63 1012.49 1012.67 1012.89 1013.03 1013.17 1013.18 1013.47 1013.83 1014.26 1014.51 1014.38 1014.21 1014.32 1014.46 1014.75 1015.06 1015.02 1014.89 1014.62
1009.93 1009.70 1009.63 1009.33 1008.67 1008.22 1008.01 1007.63 1008.41 1010.73 1011.86 1012.63 1013.17 1013.85 1014.31 1014.70 1014.76 1014.80 1014.66 1014.16 1013.61 1012.73 1012.58 1012.74 1012.71 1013.01 1013.23 1013.14 1013.29 1013.46 1013.58 1013.82 1013.98 1014.15 1014.40 1014.70 1014.89 1015.45 1015.84 1015.88 1015.64 1015.30 1014.95
1009.53 1009.04 1008.58 1008.31 1007.73 1007.62 1008.38 1008.77 1009.53 1011.09 1011.86 1012.51 1012.96 1013.15 1013.68 1013.89 1013.81 1013.84 1013.56 1013.08 1012.75 1012.65 1012.83 1013.09 1012.96 1012.84 1013.05 1013.20 1013.50 1013.64 1014.05 1014.11 1014.30 1014.65 1014.90 1015.41 1016.02 1016.44 1016.55 1016.42 1016.11 1015.69 1015.51
1009.25 1008.52 1007.75 1007.22 1007.29 1008.40 1008.15 1009.28 1010.45 1011.43 1011.99 1012.50 1013.00 1013.78 1013.46 1013.60 1013.36 1012.98 1012.64 1012.85 1012.93 1013.22 1013.34 1013.53 1013.20 1013.22 1013.47 1013.91 1014.31 1014.49 1014.35 1014.49 1014.92 1015.40 1015.75 1016.36 1016.76 1016.93 1016.84 1016.56 1016.19 1015.89 1015.76
1008.78 1008.02 1007.29 1006.71 1007.03 1008.71 1008.92 1010.14 1011.33 1012.00 1012.37 1012.81 1013.15 1013.29 1013.64 1013.39 1013.21 1012.80 1012.99 1013.35 1013.39 1013.49 1013.44 1013.75 1013.85 1013.69 1014.22 1014.86 1014.81 1014.62 1014.81 1015.49 1016.06 1016.07 1016.60 1016.89 1017.11 1016.98 1016.83 1016.61 1016.33 1015.97 1015.79
1008.02 1007.28 1006.58 1006.65 1007.31 1008.46 1009.80 1010.90 1011.87 1012.42 1012.62 1012.74 1013.28 1013.68 1013.50 1013.40 1013.07 1013.08 1013.22 1013.52 1013.52 1013.71 1014.02 1014.11 1014.42 1014.74 1015.02 1015.28 1015.04 1015.34 1016.72 1017.09 1016.70 1016.69 1017.07 1017.13 1016.99 1016.73 1016.58 1016.36 1015.97 1015.60 1015.52
1006.89 1006.28 1005.99 1006.72 1007.73 1008.82 1010.19 1011.39 1012.22 1012.40 1012.62 1012.85 1013.06 1013.20 1013.16 1012.88 1013.16 1013.08 1013.34 1013.44 1013.73 1013.95 1014.36 1014.53 1014.70 1015.07 1015.23 1015.47 1016.21 1016.81 1018.09 1018.09 1017.64 1017.83 1017.07 1017.00 1016.69 1016.43 1016.09 1015.73 1015.52 1015.41 1015.11
1006.03 1006.34 1007.35 1007.86 1007.82 1009.02 1010.23 1011.59 1012.06 1012.18 1012.37 1012.45 1012.12 1012.27 1012.91 1012.76 1012.75 1013.07 1013.40 1013.77 1013.94 1014.25 1014.55 1014.54 1014.92 1015.31 1015.35 1016.32 1017.36 1018.03 1018.16 1018.15 1017.84 1017.90 1017.26 1016.63 1016.43 1016.18 1015.74 1015.38 1015.08 1014.84 1014.79
Thickness
5709 5707 5700 5692 5684 5676 5669 5664 5660 5655 5652 5646 5640 5635 5630 5624 5620 5616 5610 5603 5597 5591 5587 5584 5583 5579 5576 5575 5574 5571 5565 5554 5542 5546 5534 5529 5523 5517 5506 5497 5490 5482 5475
5704 5699 5692 5686 5679 5673 5667 5661 5655 5649 5646 5641 5638 5632 5626 5623 5617 5610 5602 5599 5590 5586 5586 5580 5573 5571 5568 5564 5560 5557 5551 5547 5534 5528 5525 5525 5518 5509 5501 5491 5485 5476 5470
5701 5692 5689 5683 5678 5671 5665 5659 5653 5647 5643 5639 5633 5630 5630 5622 5614 5606 5598 5591 5587 5584 5576 5573 5568 5563 5559 5557 5553 5548 5541 5533 5527 5524 5523 5520 5510 5506 5495 5489 5479 5471 5463
5701 5688 5680 5677 5674 5669 5663 5657 5650 5644 5640 5635 5630 5628 5623 5618 5611 5603 5595 5588 5580 5570 5565 5561 5558 5553 5551 5547 5544 5537 5530 5523 5526 5523 5516 5510 5504 5497 5488 5480 5472 5463 5456
5691 5688 5677 5673 5670 5665 5659 5651 5643 5638 5633 5630 5626 5622 5618 5612 5608 5599 5592 5582 5570 5564 5556 5553 5550 5546 5544 5540 5534 5529 5523 5520 5517 5511 5506 5501 5493 5482 5474 5469 5463 5455 5451
5677 5674 5670 5666 5664 5658 5653 5645 5639 5636 5630 5626 5623 5618 5612 5609 5604 5594 5586 5574 5564 5556 5548 5546 5542 5540 5539 5533 5525 5515 5508 5507 5500 5497 5493 5486 5480 5472 5466 5459 5455 5449 5445
5673 5670 5661 5657 5654 5650 5647 5640 5634 5627 5625 5622 5616 5612 5608 5604 5596 5588 5579 5569 5560 5551 5543 5539 5534 5538 5533 5527 5516 5511 5505 5499 5493 5485 5479 5476 5469 5462 5458 5454 5451 5445 5441
5660 5658 5654 5649 5645 5643 5637 5632 5626 5625 5621 5614 5610 5609 5606 5602 5590 5583 5572 5563 5556 5545 5537 5533 5529 5528 5527 5522 5512 5508 5503 5499 5491 5486 5478 5471 5464 5455 5449 5447 5445 5444 5442
5642 5642 5642 5641 5638 5633 5628 5624 5622 5619 5613 5609 5608 5605 5600 5594 5584 5577 5568 5559 5550 5542 5536 5531 5526 5525 5521 5514 5509 5504 5500 5497 5490 5481 5472 5467 5457 5450 5444 5442 5443 5436 5437
5627 5628 5629 5630 5630 5628 5623 5620 5616 5614 5610 5606 5602 5598 5595 5587 5576 5570 5562 5555 5547 5539 5535 5528 5522 5518 5512 5507 5503 5500 5495 5493 5487 5472 5466 5463 5455 5450 5445 5436 5438 5431 5431
5615 5618 5618 5617 5616 5619 5618 5614 5611 5607 5603 5599 5595 5591 5586 5581 5571 5563 5556 5549 5544 5537 5530 5526 5520 5512 5508 5502 5496 5493 5489 5480 5480 5473 5469 5465 5459 5451 5450 5442 5437 5434 5426
5604 5605 5606 5606 5606 5607 5604 5600 5600 5600 5596 5591 5586 5583 5578 5572 5565 5555 5549 5541 5537 5530 5522 5515 5513 5510 5503 5494 5488 5485 5479 5473 5472 5469 5469 5461 5459 5454 5450 5444 5438 5433 5427
5590 5591 5593 5593 5595 5596 5597 5600 5596 5594 5588 5585 5581 5576 5572 5567 5560 5550 5544 5535 5527 5520 5515 5510 5506 5503 5496 5489 5484 5483 5476 5473 5469 5467 5461 5459 5457 5454 5448 5441 5437 5434 5429
5577 5579 5581 5582 5585 5588 5591 5594 5588 5585 5580 5577 5575 5572 5564 5561 5554 5546 5538 5529 5520 5515 5511 5506 5503 5501 5496 5493 5491 5481 5476 5473 5471 5466 5462 5459 5453 5446 5444 5442 5438 5436 5433
5566 5568 5570 5574 5580 5580 5584 5583 5581 5574 5570 5571 5569 5565 5560 5555 5549 5541 5534 5531 5522 5511 5506 5510 5509 5508 5504 5504 5497 5491 5480 5473 5468 5462 5458 5452 5447 5444 5441 5438 5436 5433 5433
5555 5558 5561 5563 5565 5572 5576 5573 5559 5558 5556 5558 5559 5558 5553 5547 5540 5533 5526 5522 5514 5506 5504 5510 5513 5510 5505 5501 5497 5490 5484 5477 5470 5462 5455 5450 5444 5438 5434 5431 5431 5430 5429
5538 5541 5544 5545 5551 5556 5562 5567 5563 5550 5545 5546 5547 5546 5544 5540 5534 5525 5518 5512 5505 5501 5502 5509 5510 5505 5502 5496 5489 5482 5476 5470 5461 5456 5449 5442 5437 5435 5432 5430 5427 5425 5424
5522 5523 5527 5532 5538 5545 5553 5559 5558 5550 5543 5535 5533 5534 5532 5530 5523 5515 5509 5507 5502 5494 5502 5504 5505 5501 5495 5488 5481 5474 5468 5462 5456 5448 5443 5438 5434 5431 5426 5423 5420 5417 5416
5506 5510 5511 5513 5521 5529 5541 5547 5553 5540 5532 5527 5522 5522 5518 5517 5510 5506 5502 5507 5506 5506 5508 5505 5502 5493 5486 5479 5474 5470 5464 5458 5450 5443 5439 5436 5430 5423 5415 5407 5404 5400 5400
5498 5496 5492 5494 5501 5513 5529 5547 5544 5529 5523 5519 5519 5515 5512 5510 5508 5504 5501 5501 5502 5507 5503 5497 5493 5484 5477 5474 5469 5465 5461 5455 5449 5443 5436 5429 5421 5410 5400 5396 5394 5394 5396
5492 5493 5492 5492 5500 5510 5515 5522 5524 5515 5513 5513 5512 5512 5508 5511 5508 5505 5502 5502 5502 5500 5495 5489 5486 5482 5475 5470 5466 5462 5456 5451 5445 5437 5430 5420 5408 5398 5393 5390 5389 5390 5389
5489 5493 5496 5500 5497 5502 5518 5515 5509 5506 5505 5504 5502 5499 5500 5502 5502 5504 5502 5497 5496 5490 5486 5481 5479 5474 5468 5463 5458 5454 5451 5447 5439 5430 5422 5411 5402 5395 5392 5391 5391 5391 5389
5490 5495 5500 5506 5507 5491 5507 5503 5496 5494 5495 5494 5496 5498 5495 5497 5495 5496 5493 5489 5485 5483 5481 5475 5469 5468 5461 5454 5452 5451 5448 5439 5430 5425 5417 5410 5403 5400 5398 5397 5397 5397 5397
5494 5501 5506 5507 5508 5505 5498 5493 5488 5487 5490 5493 5492 5491 5494 5491 5492 5489 5486 5482 5480 5477 5471 5465 5461 5457 5453 5450 5450 5445 5433 5427 5426 5423 5417 5413 5411 5411 5409 5409 5409 5410 5408
5503 5510 5516 5514 5507 5503 5496 5489 5485 5488 5490 5492 5492 5490 5491 5491 5486 5484 5481 5479 5475 5470 5463 5459 5456 5452 5451 5448 5441 5436 5427 5425 5424 5422 5422 5420 5421 5421 5422 5423 5422 5421 5422
5509 5506 5496 5506 5511 5505 5499 5489 5488 5491 5490 5490 5495 5493 5486 5486 5485 5481 5477 5473 5469 5463 5457 5456 5453 5449 5449 5441 5434 5431 5428 5427 5427 5426 5427 5429 5429 5430 5432 5433 5434 5434 5434